Weather Roundup
Issued by NWS

Home | Current Version | Previous Version | Graphics & Text | Print | Product List | Glossary Off
Versions: 1 2 3 4 5 6 7 8 9 10 11 12 13 14 15 16 17 18 19 20 21 22 23 24 25 26 27 28 29 30 31 32 33 34 35 36 37 38 39 40 41 42 43 44 45 46 47 48 49 50

000
NZUS93 KARX 241859
HRRWXR

CURRENT HOURLY OBSERVATIONS ACROSS
MUCH OF THE UPPER MISSISSIPPI VALLEY
NATIONAL WEATHER SERVICE LA CROSSE WI
200 PM CDT SUN JUL 24 2016


...SOUTHEAST MINNESOTA...


CITY           SKY/WX    TMP DP  RH WIND       PRES   REMARKS
ROCHESTER      SUNNY     82  65  56 W9        29.91F
ROCHESTER/MAYO FAIR      81  59  47 W20       29.90S
WINONA         SUNNY     82  61  47 NW10G17   29.86F
AUSTIN         SUNNY     81  61  50 NW13G18   29.93R
ALBERT LEA     SUNNY     81  64  57 W8        29.94R
DODGE CENTER   SUNNY     82  61  47 NW14      29.93R
PRESTON        SUNNY     80  61  51 NW14      29.91F
OWATONNA       SUNNY     82  63  51 W13       29.93R
FARIBAULT      SUNNY     81  64  57 NW10G20   29.92S
$$

...ELSEWHERE IN MINNESOTA...


CITY           SKY/WX    TMP DP  RH WIND       PRES   REMARKS
MINNEAPOLIS    MOSUNNY   83  62  49 N16G23    29.88S
INTNL FALLS    MOSUNNY   78  61  55 W15G23    29.79F
DULUTH         MOSUNNY   79  62  56 NW17      29.83S
RED WING       SUNNY     84  61  45 NW8       29.86S
REDWOOD FALLS  SUNNY     79  59  50 NW13G21   29.95F
MANKATO        SUNNY     79  63  57 NW15G22   29.93F
WORTHINGTON    PTSUNNY   78  62  57 NW13      30.02S
FAIRMONT       SUNNY     81  48  32 NW9       29.96S
$$

...SOUTHWEST WISCONSIN...


CITY           SKY/WX    TMP DP  RH WIND       PRES   REMARKS
LA CROSSE      SUNNY     88  65  46 NW13      29.84F HX  90
PRAIRIE DU CHI MOSUNNY   88  73  61 W9        29.85S HX  95
BOSCOBEL       PTSUNNY   90  78  68 W12G21    29.85S HX 104
LONE ROCK      CLOUDY    85  78  80 W9        29.85S HX  96
PLATTEVILLE    CLOUDY    83  81  93 NW9       29.88R HX  96
FORT MC COY    MOSUNNY   86  71  59 NW14      29.86R HX  91
CAMP DOUGLAS   MOSUNNY   86  76  71 W13G21    29.84R HX  95
MAUSTON-NEW LI MOCLDY    85  77  75 W8        29.83S HX  95
VIROQUA        MOCLDY    84  72  67 NW13      29.89R HX  90
WIS DELLS      NOT AVBL
$$

...ELSEWHERE IN WISCONSIN...


CITY           SKY/WX    TMP DP  RH WIND       PRES   REMARKS
MILWAUKEE      PTSUNNY   91  78  65 SW20      29.82F HX 106
MADISON        PTSUNNY   88  78  72 W6        29.83S HX 101
GREEN BAY      CLOUDY    80  78  94 S6        29.79F
EAU CLAIRE     NOT AVBL
BLACK RVR FLS  FAIR      86  65  49 W8        29.85R
MEDFORD        PTSUNNY   81  69  66 W14G21    29.86S
WAUSAU         MOSUNNY   82  72  71 NW5       29.82S
WIS RAPIDS     PTSUNNY   86  71  60 NW12      29.85S HX  91
MARSHFIELD     PTSUNNY   85  70  60 NW12      29.85S
RICE LAKE      SUNNY     80  65  59 W14G20    29.87S
$$

...NORTHEAST IOWA...


CITY           SKY/WX    TMP DP  RH WIND       PRES   REMARKS
WATERLOO       SUNNY     86  64  47 N15       29.89S
DUBUQUE        CLOUDY    83  78  85 W7        29.90R HX  93
DECORAH        SUNNY     84  66  54 NW10G17   29.89F
MASON CITY     SUNNY     82  65  56 NW12      29.96R
CHARLES CITY   SUNNY     82  66  57 NW9       29.93S
OELWEIN        SUNNY     84  73  70 NW12G18   29.91S HX  91
$$

...ELSEWHERE IN IOWA...


CITY           SKY/WX    TMP DP  RH WIND       PRES   REMARKS
DES MOINES     CLOUDY    87  66  49 N10       29.93S
IOWA CITY      PTSUNNY   89  79  72 NW14      29.89R HX 104
FORT DODGE     PTSUNNY   82  64  54 N5        29.98S
MARSHALLTOWN   MOSUNNY   84  67  56 NW12      29.92S
CEDAR RAPIDS   CLOUDY    84  80  88 N9        29.89S HX  97
$$

...NORTHERN ILLINOIS...


CITY           SKY/WX    TMP DP  RH WIND       PRES   REMARKS
CHICAGO-OHARE  PTSUNNY   91  77  63 S17G24    29.86F HX 104
CHICAGO-MIDWAY PTSUNNY   92  78  63 S18G24    29.87F HX 107
MOLINE         MOSUNNY   92  77  61 W10       29.86S HX 105
ROCKFORD       PTSUNNY   98  76  49 SW17      29.86F HX 112
PEORIA         CLOUDY    92  82  72 S13       29.88F HX 114
$$

NOTE: "FAIR" INDICATES FEW OR NO CLOUDS BELOW 12,000 FEET WITH NO
SIGNIFICANT WEATHER AND/OR OBSTRUCTIONS TO VISIBILITY. WIND
SPEEDS ARE IN MILES-PER-HOUR.




USA.gov is the U.S. government's official web portal to all federal, state and local government web resources and services.